This is the latest recevied weather packets stored in our database for station/object W8BS. If no packets are shown the sender has not sent any weather packets the latest 1 day(s).
| Time | Temp. | Humidity | Pressure | Rain* | Wind** | Luminosity | Snow |
|---|---|---|---|---|---|---|---|
| 1778083941 | 14.44° C | 99% | 1009.2 hPa | 0 mm | - | 52 W/m² | - |
| 1778083335 | 14.44° C | 99% | 1009.4 hPa | 0 mm | - | 64 W/m² | - |
| 1778081598 | 14.44° C | 99% | 1008.8 hPa | 1.27 mm | - | 63 W/m² | - |
| 1778081295 | 14.44° C | 99% | 1008.4 hPa | 0 mm | - | 103 W/m² | - |
| 1778080992 | 14.44° C | 99% | 1008.6 hPa | 1.78 mm | - | 114 W/m² | - |
| 1778080691 | 14.44° C | 99% | 1008.5 hPa | 1.78 mm | - | 81 W/m² | - |
| 1778079781 | 14.44° C | 99% | 1008.4 hPa | 0 mm | - | 91 W/m² | - |
| 1778079478 | 13.89° C | 99% | 1008.5 hPa | 1.78 mm | - | 86 W/m² | - |
| 1778079174 | 13.89° C | 99% | 1008.4 hPa | 1.78 mm | - | 58 W/m² | - |
| 1778078872 | 13.89° C | 99% | 1008.5 hPa | 1.78 mm | - | 56 W/m² | - |
| 1778077662 | 13.89° C | 99% | 1008.4 hPa | 1.78 mm | - | 78 W/m² | - |
| 1778075846 | 13.89° C | 99% | 1008.2 hPa | 1.27 mm | - | 59 W/m² | - |
| 1778074027 | 13.89° C | 99% | 1008.1 hPa | 0 mm | - | 52 W/m² | - |
| 1778073117 | 13.33° C | 99% | 1008.1 hPa | 0 mm | - | 49 W/m² | - |
| 1778071907 | 13.33° C | 99% | 1007.9 hPa | 1.27 mm | - | 33 W/m² | - |
| 1778069790 | 13.33° C | 99% | 1007.8 hPa | 1.27 mm | - | 25 W/m² | - |
| 1778068580 | 12.78° C | 99% | 1007.6 hPa | 1.78 mm | - | 12 W/m² | - |
| 1778065554 | 12.22° C | 99% | 1007.4 hPa | 0 mm | - | 14 W/m² | - |
| 1778065251 | 12.22° C | 99% | 1007.2 hPa | 0 mm | - | 10 W/m² | - |
| 1778064947 | 12.22° C | 99% | 1007.5 hPa | 1.27 mm | - | 7 W/m² | - |
| 1778064644 | 12.22° C | 99% | 1007.5 hPa | 1.27 mm | - | 5 W/m² | - |
| 1778064040 | 12.22° C | 99% | 1007.4 hPa | 8.89 mm | - | 2 W/m² | - |
| 1778063737 | 12.22° C | 99% | 1007.7 hPa | 11.94 mm | - | 0 W/m² | - |
| 1778063132 | 12.22° C | 99% | 1008.1 hPa | 7.87 mm | - | 0 W/m² | - |
| 1778061921 | 12.22° C | 99% | 1007.9 hPa | 3.05 mm | - | 0 W/m² | - |
* Rain latest hour (hover to see other rain measurements)
** Current wind speed in m/s (hover to see current wind gust speed)